FW4636 Weather Reports


time (UTC)temp
C
wind
direction
speed
KPH
gust
KPH
rain 1hr
cm
rain 24hr
cm
rain mn
cm
humidity
%
barometer
mb
20260506114052 14 52 6.4 12.9 0.00 0.00 0.00 93 1008.8
20260506113552 14 5 3.2 11.3 0.00 0.00 0.00 93 1008.7
20260506113051 14 360 4.8 16.1 0.00 0.00 0.00 93 1008.7
20260506112554 14 355 3.2 16.1 0.00 0.00 0.00 93 1008.6
20260506112049 14 355 6.4 14.5 0.00 0.00 0.00 93 1008.5
20260506111549 14 344 4.8 11.3 0.00 0.00 0.00 93 1008.5
20260506111048 14 340 4.8 14.5 0.00 0.00 0.00 93 1008.4
20260506110548 14 360 4.8 14.5 0.00 0.00 0.00 92 1008.3
20260506110046 14 342 4.8 14.5 0.00 0.00 0.00 92 1008.2
20260506105545 14 333 6.4 16.1 0.00 0.00 0.00 92 1008.2
20260506105044 15 10 6.4 17.7 0.00 0.00 0.00 92 1008.0
20260506104545 15 355 8.0 17.7 0.00 0.00 0.00 92 1008.0
20260506104042 15 355 6.4 12.9 0.00 0.00 0.00 92 1007.9
20260506103541 15 341 4.8 14.5 0.00 0.00 0.00 91 1007.9
20260506103040 15 316 6.4 14.5 0.00 0.00 0.00 91 1007.8
20260506102538 15 355 3.2 12.9 0.00 0.00 0.00 91 1007.7
20260506102038 15 360 6.4 16.1 0.00 0.00 0.00 91 1007.4
20260506101537 15 355 8.0 16.1 0.00 0.00 0.00 90 1007.3
20260506101037 15 13 8.0 12.9 0.00 0.00 0.00 90 1007.4
20260506100535 16 360 1.6 11.3 0.00 0.00 0.00 90 1007.5
20260506100033 16 355 3.2 11.3 0.00 0.00 0.00 90 1007.4
20260506095533 16 360 3.2 14.5 0.00 0.00 0.00 90 1007.2
20260506095031 16 355 4.8 14.5 0.00 0.00 0.00 90 1007.3
20260506094531 16 336 4.8 11.3 0.00 0.00 0.00 90 1007.2
20260506094029 16 360 1.6 9.7 0.00 0.00 0.00 90 1007.2
20260506093529 16 355 3.2 12.9 0.00 0.00 0.00 90 1007.1
20260506093027 16 47 3.2 12.9 0.00 0.00 0.00 89 1006.9
20260506092529 16 48 3.2 16.1 0.00 0.00 0.00 89 1006.8
20260506092026 17 49 6.4 16.1 0.00 0.00 0.00 88 1006.8
20260506091525 17 20 4.8 14.5 0.00 0.00 0.00 88 1006.8
20260506091024 17 292 6.4 14.5 0.00 0.00 0.00 87 1006.7
20260506090522 17 53 8.0 17.7 0.00 0.00 0.00 87 1006.7
20260506090021 17 37 8.0 17.7 0.00 0.00 0.00 87 1006.7
20260506085520 17 44 9.7 17.7 0.00 0.00 0.00 87 1006.6
20260506085019 18 36 6.4 17.7 0.00 0.00 0.00 87 1006.7
20260506084518 18 49 4.8 14.5 0.00 0.00 0.00 86 1006.7
20260506084017 18 335 6.4 16.1 0.00 0.00 0.00 86 1006.7
20260506083516 18 40 6.4 19.3 0.00 0.00 0.00 86 1006.7
20260506083014 19 46 9.7 19.3 0.00 0.00 0.00 86 1006.5
20260506082512 19 50 8.0 14.5 0.00 0.00 0.00 86 1006.5
20260506082011 20 355 4.8 9.7 0.00 0.00 0.00 86 1006.4
20260506081511 20 355 1.6 14.5 0.00 0.00 0.00 86 1006.6
20260506081010 20 355 4.8 14.5 0.00 0.00 0.00 86 1006.4
20260506080509 20 355 3.2 11.3 0.00 0.00 0.00 86 1006.4
20260506073505 21 336 0.0 3.2 0.00 0.00 0.00 85 1006.5
20260506073004 21 336 0.0 6.4 0.00 0.00 0.00 84 1006.6
20260506072503 21 336 0.0 6.4 0.00 0.00 0.00 84 1006.6
20260506072006 21 337 1.6 11.3 0.00 0.00 0.00 84 1006.6
20260506071502 21 337 1.6 11.3 0.00 0.00 0.00 84 1006.6
20260506071001 21 355 0.0 9.7 0.00 0.00 0.00 83 1006.5
20260506070602 21 355 4.8 12.9 0.00 0.00 0.00 83 1006.5
20260506062050 23 218 0.0 3.2 0.00 0.00 0.00 89 1006.3
20260506061550 23 218 0.0 1.6 0.00 0.00 0.00 89 1006.3
20260506061051 23 218 0.0 3.2 0.00 0.00 0.00 89 1006.4
20260506060548 23 218 0.0 3.2 0.00 0.00 0.00 88 1006.4
20260506051040 24 218 0.0 0.0 0.00 0.00 0.00 86 1005.9
20260506050543 24 218 0.0 0.0 0.00 0.00 0.00 86 1005.8
20260506045038 25 218 1.6 6.4 0.00 0.00 0.00 86 1005.7
20260506044544 25 218 1.6 8.0 0.00 0.00 0.00 86 1005.7
20260506044038 25 218 1.6 8.0 0.00 0.00 0.00 86 1005.7
20260506043538 25 218 1.6 16.1 0.00 0.00 0.00 85 1005.7
20260506043037 25 218 4.8 16.1 0.00 0.00 0.00 85 1005.7
20260506042538 25 217 3.2 12.9 0.00 0.00 0.00 85 1005.5
20260506042038 25 209 4.8 12.9 0.00 0.00 0.00 85 1005.6
20260506041538 25 209 1.6 14.5 0.00 0.00 0.00 85 1005.5
20260506041037 25 209 4.8 14.5 0.00 0.00 0.00 85 1005.3
20260506040538 25 216 3.2 17.7 0.00 0.00 0.00 84 1005.2
20260506040037 25 216 3.2 19.3 0.00 0.00 0.00 84 1005.1
20260506035537 25 217 8.0 19.3 0.00 0.00 0.00 84 1005.1
20260506035037 25 229 6.4 17.7 0.00 0.00 0.00 84 1005.1
20260506034539 25 211 6.4 17.7 0.00 0.00 0.00 84 1005.1
20260506034036 25 215 8.0 16.1 0.00 0.00 0.00 84 1005.1
20260506033536 25 184 6.4 12.9 0.00 0.00 0.00 83 1004.8
20260506033038 25 184 4.8 11.3 0.00 0.00 0.00 83 1004.8
20260506032537 25 184 4.8 12.9 0.00 0.00 0.00 83 1004.7
20260506032038 25 184 6.4 12.9 0.00 0.00 0.00 83 1004.5
20260506031537 25 184 6.4 14.5 0.00 0.00 0.00 82 1004.3
20260506031036 25 184 4.8 14.5 0.00 0.00 0.00 82 1004.2
20260506030535 25 184 3.2 11.3 0.00 0.00 0.00 82 1004.3
20260506030055 25 183 4.8 11.3 0.00 0.00 0.00 82 1004.1
20260506025535 25 184 1.6 12.9 0.00 0.00 0.00 82 1004.1
20260506025036 25 183 4.8 12.9 0.00 0.00 0.00 82 1003.8
20260506024547 25 183 4.8 16.1 0.00 0.00 0.00 82 1003.7
20260506024035 25 182 6.4 16.1 0.00 0.00 0.00 81 1003.7
20260506023535 25 182 4.8 14.5 0.00 0.00 0.00 81 1003.6
20260506023035 25 180 6.4 14.5 0.00 0.00 0.00 81 1003.4
20260506022534 25 180 4.8 16.1 0.00 0.00 0.00 81 1003.4
20260506022034 25 180 4.8 16.1 0.00 0.00 0.00 80 1003.4
20260506021534 25 173 6.4 14.5 0.00 0.00 0.00 80 1003.4
20260506021034 26 172 4.8 14.5 0.00 0.00 0.00 80 1003.5
20260506020535 26 172 4.8 16.1 0.00 0.00 0.00 80 1003.4
20260506020034 26 172 6.4 16.1 0.00 0.00 0.00 80 1003.4
20260506015536 26 169 6.4 16.1 0.00 0.00 0.00 79 1003.1
20260506015034 26 184 6.4 12.9 0.00 0.00 0.00 79 1003.1
20260506014543 26 182 6.4 12.9 0.00 0.00 0.00 78 1003.2
20260506014035 26 186 4.8 9.7 0.00 0.00 0.00 78 1003.2
20260506013535 26 186 4.8 9.7 0.00 0.00 0.00 77 1003.2
20260506013032 26 189 3.2 14.5 0.00 0.00 0.00 77 1003.1
20260506012532 26 189 6.4 14.5 0.00 0.00 0.00 76 1003.2
20260506012033 26 208 4.8 12.9 0.00 0.00 0.00 76 1003.1
20260506011537 26 211 6.4 14.5 0.00 0.00 0.00 75 1003.2
20260506011035 27 213 8.0 14.5 0.00 0.00 0.00 75 1003.2
20260506010534 27 215 6.4 17.7 0.00 0.00 0.00 75 1003.2
20260506010032 27 217 6.4 19.3 0.00 0.00 0.00 74 1003.1
20260506005532 27 198 9.7 19.3 0.00 0.00 0.00 74 1003.1
20260506005031 27 207 6.4 19.3 0.00 0.00 0.00 74 1003.0
20260506004544 27 213 8.0 19.3 0.00 0.00 0.00 74 1002.9
20260506004031 27 207 9.7 19.3 0.00 0.00 0.00 74 1002.9
20260506003532 27 215 3.2 22.5 0.00 0.00 0.00 74 1002.8
20260506003038 27 216 12.9 22.5 0.00 0.00 0.00 73 1002.8
20260506002530 27 194 6.4 20.9 0.00 0.00 0.00 73 1002.7
20260506002031 27 230 11.3 22.5 0.00 0.00 0.00 73 1002.7
20260506001534 27 187 9.7 22.5 0.00 0.00 0.00 73 1002.6
20260506001031 27 178 12.9 29.0 0.00 0.00 0.00 73 1002.7
20260506000531 27 231 12.9 29.0 0.00 0.00 0.00 72 1002.7
20260506000030 27 204 11.3 22.5 0.00 0.00 0.00 72 1002.8
20260505235530 27 192 9.7 22.5 0.00 0.00 0.00 72 1002.8
20260505235030 27 215 9.7 20.9 0.00 0.00 0.00 72 1002.8
20260505234531 28 177 9.7 22.5 0.00 0.00 0.00 72 1002.7
20260505234029 27 205 9.7 25.7 0.00 0.00 0.00 72 1002.9
20260505233530 28 192 11.3 25.7 0.00 0.00 0.00 71 1002.8
20260505233029 28 207 12.9 32.2 0.00 0.00 0.00 71 1002.8
20260505232528 28 231 12.9 32.2 0.00 0.00 0.00 72 1002.6
20260505232028 28 215 11.3 22.5 0.00 0.00 0.00 72 1002.5
20260505231529 27 208 9.7 24.1 0.00 0.00 0.00 72 1002.4
20260505231027 27 174 12.9 30.6 0.00 0.00 0.00 72 1002.4
20260505230526 27 191 11.3 30.6 0.00 0.00 0.00 72 1002.5
20260505230039 27 218 12.9 25.7 0.00 0.00 0.00 72 1002.5
20260505225526 27 207 12.9 30.6 0.00 0.00 0.00 71 1002.4
20260505225028 27 165 14.5 37.0 0.00 0.00 0.00 71 1002.4
20260505224532 27 165 11.3 37.0 0.00 0.00 0.00 72 1002.5
20260505224026 27 218 14.5 37.0 0.00 0.00 0.00 72 1002.5
20260505223525 27 242 14.5 33.8 0.00 0.00 0.00 71 1002.6
20260505223024 27 236 14.5 33.8 0.00 0.00 0.00 71 1002.5
20260505222524 28 194 12.9 32.2 0.00 0.00 0.00 71 1002.5
20260505222024 28 206 14.5 38.6 0.00 0.00 0.00 71 1002.4
20260505221524 27 207 16.1 38.6 0.00 0.00 0.00 71 1002.2
20260505221023 27 173 8.0 37.0 0.00 0.00 0.00 72 1002.2
20260505220523 27 198 17.7 37.0 0.00 0.00 0.00 71 1002.2
20260505220024 28 187 11.3 32.2 0.00 0.00 0.00 71 1002.4
20260505215524 28 213 11.3 33.8 0.00 0.00 0.00 71 1002.3
20260505215025 28 219 14.5 33.8 0.00 0.00 0.00 71 1002.4
20260505214522 28 191 14.5 33.8 0.00 0.00 0.00 71 1002.5
20260505214022 28 211 17.7 33.8 0.00 0.00 0.00 70 1002.5
20260505213524 28 213 12.9 32.2 0.00 0.00 0.00 70 1002.6
20260505213019 28 198 11.3 30.6 0.00 0.00 0.00 70 1002.5
20260505212519 28 209 14.5 32.2 0.00 0.00 0.00 69 1002.8
20260505212020 28 175 16.1 32.2 0.00 0.00 0.00 69 1002.8
20260505211521 28 233 9.7 29.0 0.00 0.00 0.00 70 1002.8
20260505211017 28 174 11.3 30.6 0.00 0.00 0.00 70 1003.0
20260505210518 28 205 12.9 33.8 0.00 0.00 0.00 70 1003.0
20260505210016 28 194 20.9 33.8 0.00 0.00 0.00 69 1003.1
20260505205515 28 223 8.0 29.0 0.00 0.00 0.00 71 1003.2
20260505205015 27 180 11.3 30.6 0.00 0.00 0.00 71 1003.4
20260505204515 27 211 12.9 30.6 0.00 0.00 0.00 71 1003.4
20260505204013 27 175 8.0 22.5 0.00 0.00 0.00 72 1003.5
20260505203513 27 205 11.3 25.7 0.00 0.00 0.00 71 1003.5
20260505203023 27 220 14.5 30.6 0.00 0.00 0.00 71 1003.6
20260505202512 28 221 16.1 30.6 0.00 0.00 0.00 71 1003.6
20260505202012 27 225 12.9 25.7 0.00 0.00 0.00 71 1003.5
20260505201511 28 240 16.1 29.0 0.00 0.00 0.00 71 1003.5
20260505201010 27 205 8.0 38.6 0.00 0.00 0.00 73 1003.4
20260505200510 27 185 12.9 38.6 0.00 0.00 0.00 72 1003.4
20260505200008 27 176 17.7 32.2 0.00 0.00 0.00 71 1003.3
20260505195511 27 177 14.5 38.6 0.00 0.00 0.00 72 1003.4
20260505195007 27 218 12.9 38.6 0.00 0.00 0.00 72 1003.3
20260505194506 27 184 19.3 35.4 0.00 0.00 0.00 72 1003.5
20260505194006 27 217 11.3 32.2 0.00 0.00 0.00 73 1003.6
20260505193504 27 196 16.1 38.6 0.00 0.00 0.00 73 1003.7
20260505193002 27 208 19.3 38.6 0.00 0.00 0.00 72 1003.9
20260505192501 27 234 16.1 38.6 0.00 0.00 0.00 74 1003.9
20260505192000 27 217 16.1 35.4 0.00 0.00 0.00 73 1004.0
20260505191606 27 205 14.5 33.8 0.00 0.00 0.00 73 1004.0
20260505191100 27 196 16.1 33.8 0.00 0.00 0.00 73 1004.0
20260505190558 27 220 9.7 32.2 0.00 0.00 0.00 74 1003.9
20260505190057 27 184 14.5 33.8 0.00 0.00 0.00 74 1004.0
20260505185557 26 227 9.7 33.8 0.00 0.00 0.00 75 1003.9
20260505185055 26 231 12.9 35.4 0.00 0.00 0.00 75 1004.0
20260505184556 26 202 14.5 41.8 0.00 0.00 0.00 75 1004.1
20260505184052 26 227 16.1 41.8 0.00 0.00 0.00 75 1004.1
20260505183552 26 243 16.1 35.4 0.00 0.00 0.00 75 1004.2
20260505183052 26 214 14.5 37.0 0.00 0.00 0.00 75 1004.2
20260505182550 26 214 14.5 37.0 0.00 0.00 0.00 75 1004.3
20260505182050 26 248 17.7 35.4 0.00 0.00 0.00 75 1004.3
20260505181549 26 228 17.7 35.4 0.00 0.00 0.00 76 1004.3
20260505181049 26 248 16.1 35.4 0.00 0.00 0.00 76 1004.3
20260505180546 26 206 11.3 35.4 0.00 0.00 0.00 78 1004.4
20260505180046 25 192 14.5 33.8 0.00 0.00 0.00 77 1004.4
20260505175545 25 186 12.9 33.8 0.00 0.00 0.00 77 1004.4
20260505175045 25 187 14.5 40.2 0.00 0.00 0.00 78 1004.5
20260505174542 25 211 16.1 40.2 0.00 0.00 0.00 78 1004.5
20260505174045 25 205 16.1 37.0 0.00 0.00 0.00 79 1004.7
20260505173542 25 221 14.5 38.6 0.00 0.00 0.00 79 1004.7
20260505173041 25 194 16.1 38.6 0.00 0.00 0.00 78 1004.7
20260505172541 25 202 11.3 35.4 0.00 0.00 0.00 79 1004.7
20260505172040 25 211 11.3 40.2 0.00 0.00 0.00 79 1004.6
20260505171547 25 209 19.3 40.2 0.00 0.00 0.00 79 1004.5
20260505171040 25 210 12.9 35.4 0.00 0.00 0.00 80 1004.4
20260505170539 25 205 17.7 35.4 0.00 0.00 0.00 79 1004.5
20260505170040 25 217 12.9 32.2 0.00 0.00 0.00 80 1004.6
20260505165539 25 193 19.3 45.1 0.00 0.00 0.00 79 1004.6
20260505165038 24 212 16.1 45.1 0.00 0.00 0.00 79 1004.5
20260505164541 24 198 9.7 45.1 0.00 0.00 0.00 80 1004.5
20260505164036 24 227 17.7 45.1 0.00 0.00 0.00 80 1004.6
20260505163536 24 209 14.5 35.4 0.00 0.00 0.00 81 1004.7
20260505163040 24 215 14.5 33.8 0.00 0.00 0.00 80 1004.8
20260505162534 24 215 14.5 40.2 0.00 0.00 0.00 81 1004.8
20260505162034 24 232 16.1 40.2 0.00 0.00 0.00 80 1004.8
20260505161534 24 252 16.1 35.4 0.00 0.00 0.00 81 1004.9
20260505161034 23 175 16.1 45.1 0.00 0.00 0.00 81 1004.7
20260505160533 23 236 19.3 46.7 0.00 0.00 0.00 82 1004.7
20260505153034 23 188 19.3 35.4 0.00 0.00 0.00 82 1004.8
20260505152527 23 218 14.5 38.6 0.00 0.00 0.00 83 1004.9
20260505152035 23 193 20.9 40.2 0.00 0.00 0.00 83 1004.8
20260505151528 23 246 22.5 40.2 0.00 0.00 0.00 82 1004.6
20260505151026 23 236 20.9 43.5 0.00 0.00 0.00 82 1004.6
20260505150527 23 226 16.1 43.5 0.00 0.00 0.00 82 1004.7
20260505140516 22 185 12.9 37.0 0.00 0.00 0.00 84 1004.6
20260505125010 21 184 9.7 25.7 0.00 0.00 0.00 86 1004.3
20260505124509 21 173 11.3 19.3 0.00 0.00 0.00 87 1004.2
20260505124008 21 217 9.7 20.9 0.00 0.00 0.00 87 1004.2
20260505123508 21 173 11.3 29.0 0.00 0.00 0.00 87 1004.1
20260505123007 21 193 14.5 29.0 0.00 0.00 0.00 87 1004.0
20260505122506 21 225 9.7 17.7 0.00 0.00 0.00 87 1004.0
20260505122005 21 225 6.4 25.7 0.00 0.00 0.00 88 1004.1
20260505121505 21 202 9.7 25.7 0.00 0.00 0.00 88 1004.1
20260505121005 21 204 11.3 30.6 0.00 0.00 0.00 88 1003.9
20260505120503 21 237 14.5 30.6 0.00 0.00 0.00 88 1003.9
20260505120005 21 245 8.0 29.0 0.00 0.00 0.00 88 1004.0
20260505115503 21 209 14.5 24.1 0.00 0.00 0.00 88 1003.9
20260505115003 21 218 14.5 32.2 0.00 0.00 0.00 88 1003.9
20260505114503 21 217 8.0 32.2 0.00 0.00 0.00 88 1003.9